Regional Weather Roundup
Issued by NWS

Home | Current Version | Previous Version | Graphics & Text | Print | Product List | Glossary On
Versions: 1 2 3 4 5 6 7 8 9 10 11 12 13 14 15 16 17 18 19 20 21 22 23 24 25 26 27 28 29 30 31 32 33 34 35 36 37 38 39 40 41 42 43 44 45 46 47 48 49 50
000
ASUS43 KOAX 042002
RWRNE

WEATHER ROUNDUP FOR NEBRASKA
NATIONAL WEATHER SERVICE OMAHA NE
300 PM CDT MON MAY 04 2015

NOTES: SATELLITE DATA IS BEING USED TO AUGMENT CLOUD COVER ABOVE
       12000 FEET.
       "FAIR" INDICATES FEW OR NO CLOUDS BELOW 12,000 FEET WITH NO
       SIGNIFICANT WEATHER AND/OR OBSTRUCTIONS TO VISIBILITY.

  * THESE STATIONS DO NOT REPORT WEATHER SUCH AS RAIN...SNOW OR FOG.

NEZ001>004-019>022-054>056-042100-
NEBRASKA PANHANDLE

CITY           SKY/WX    TMP DP  RH WIND       PRES   REMARKS
SCOTTSBLUFF    CLOUDY    59  36  42 SE16G22   30.13F
ALLIANCE       CLOUDY    56  32  40 E12       30.14F
CHADRON        CLOUDY    52  37  56 E8        30.17F
KIMBALL        CLOUDY    54  42  62 E7        30.12F
SIDNEY         PTSUNNY   62  41  46 SE14      30.13F
$$

NEZ057>060-069>072-079>082-042100-
SOUTHWEST NEBRASKA

CITY           SKY/WX    TMP DP  RH WIND       PRES   REMARKS
NORTH PLATTE   LGT RAIN  49  43  80 E15       30.14S
IMPERIAL       LGT RAIN  51  46  83 NE10      30.14S
MCCOOK         CLOUDY    57  44  62 NE14      30.12R
$$

NEZ005>010-023>029-035>040-094-042100-
NORTH CENTRAL NEBRASKA

CITY           SKY/WX    TMP DP  RH WIND       PRES   REMARKS
VALENTINE      CLOUDY    66  24  20 E16G24    30.16F
AINSWORTH      CLOUDY    69  23  17 E12G22    30.14F
BROKEN BOW     LGT RAIN  59  39  47 E9        30.13R
ORD            CLOUDY    63  40  42 E10G21    30.11S
$$

NEZ041-046>049-061>064-073>077-083>087-042100-
SOUTH CENTRAL NEBRASKA

CITY           SKY/WX    TMP DP  RH WIND       PRES   REMARKS
GRAND ISLAND   CLOUDY    54  50  86 NE10      30.11S
AURORA         DRIZZLE   55  51  86 NE16G22   30.10S
HASTINGS       CLOUDY    56  50  80 NE15G23   30.09F
KEARNEY *      CLOUDY    54  45  71 NE20      30.11S
$$

NEZ011>018-030>034-042>045-042100-
NORTHEAST NEBRASKA

CITY           SKY/WX    TMP DP  RH WIND       PRES   REMARKS
NORFOLK        CLOUDY    64  42  44 E15       30.13R
COLUMBUS *     CLOUDY    57  48  72 NE12      30.14S
TEKAMAH        LGT RAIN  63  52  67 NE9       30.11R
$$

NEZ050>053-065>068-078-088>093-042100-
SOUTHEAST NEBRASKA

CITY           SKY/WX    TMP DP  RH WIND       PRES   REMARKS
LINCOLN        CLOUDY    60  55  83 N12       30.10S
OMAHA EPPLEY   LGT RAIN  66  58  75 E5        30.09R
FALLS CITY     LGT RAIN  74  62  66 NE10      30.01F
PLATTSMOUTH    DRIZZLE   63  58  84 NE10      30.06F
$$

NEZ044-045-051>053-067-042100-
OMAHA AREA

CITY           SKY/WX    TMP DP  RH WIND       PRES   REMARKS
OMAHA EPPLEY   LGT RAIN  66  58  75 E5        30.09R
OFFUTT AFB     LGT RAIN  66  60  80 E6        30.07F
PLATTSMOUTH    DRIZZLE   63  58  84 NE10      30.06F
$$



USA.gov is the U.S. government's official web portal to all federal, state and local government web resources and services.